SCP
-0 -0 0 0 0 0 0 0 0 0 0 -0 -0 -0 -0 -0 0 0 0 -0 0 -0 -0 -0 -0 -0 -0 -0 -0 -0 -0 -0 -0 -0 -0 -0 -0 -0 -0 -0 -0 -0 -0 -0 -0 -0 0 0 0
-0 -0 0 -0 0 0 0 0 0 -0 0 -0 0 0 0 -0 0 -0 0 0 0 -0 -0 -0 -0 -0 -0 -0 -0 -0 -0 -0 -0 -0 -0 -0 -0 -0 -0 -0 -0 -0 -0 -0 -0 -0 -0 -0 0
-0 0 -0 -0 0 0 0 0 0 0 0 -0 0 0 -0 0 -0 0 -0 0 -0 -0 -0 -0 -0 -0 -0 -0 -0 0 0 -0 -0 -0 -0 -0 -0 -0 -0 -0 -0 -0 -0 -0 -0 -0 -0 -0 -0
0 0 -0 0 0 -0 -0 -0 0 0 0 -0 -0 -0 -0 -0 -0 -0 -0 -0 -0 -0 -0 -0 -0 -0 -0 -0 -0 -0 0 0 -0 -0 -0 -0 -0 -0 -0 -0 -0 -0 -0 -0 -0 -0 0 0 0
0 0 -0 0 -0 -0 -0 -0 0 0 0 0 0 0 0 0 -0 -0 -0 -0 -0 -0 -0 -0 -0 -0 -0 -0 -0 -0 -0 -0 -0 -0 -0 -0 -0 -0 -0 -0 -0 -0 -0 -0 -0 -0 0 0 0
0 0 0 0 -0 -0 -0 0 0 0 0 0 0 0 0 0 0 0 0 0 -0 -0 -0 -0 -0 0 0 0 0 0 -0 -0 -0 -0 -0 -0 -0 -0 -0 -0 -0 -0 -0 -0 -0 0 0 0 0
0 0 0 0 0 0 0 0 0 0 0 0 0 0 0 0 0 0 0 0 0 0 0 0 0 0 0 0 0 0 0 0 0 -0 -0 -0 -0 -0 -0 -0 -0 -0 0 0 0 0 0 0 0
0 0 0 0 0 0 0 0 0 0 0 0 0 0 0 0 0 0 0 0 0 0 0 0 0 0 0 0 0 0 0 0 0 0 0 0 0 -0 -0 0 0 0 0 0 0 0 0 0 0
0 0 0 0 0 0 0 0 0 0 0 0 0 0 0 0 0 0 0 0 0 0 0 0 0 0 0 0 0 0 0 0 0 0 0 0 0 0 0 0 0 0 0 0 0 0 0 0 0
0 0 0 0 0 0 0 0 0 0 0 0 0 0 0 0 0 0 0 0 0 0 0 0 0 0 0 0 0 0 0 0 0 0 0 0 0 0 0 0 0 0 0 0 -0 0 0 0 0
0 0 0 0 0 0 0 0 0 0 0 0 0 0 0 0 0 0 0 0 0 0 0 0 0 0 0 0 0 0 0 0 0 0 0 0 0 0 0 0 0 0 0 0 0 0 0 0 0
0 0 0 0 0 0 0 0 0 0 0 0 0 0 0 0 0 0 0 0 0 0 0 0 0 0 0 0 0 0 0 0 0 0 0 0 0 0 0 0 0 0 0 0 0 0 0 0 0
0 0 0 0 0 0 0 0 0 0 0 0 0 0 0 0 0 0 0 0 0 0 0 0 0 0 0 0 0 0 0 0 0 0 0 0 0 0 0 0 0 0 0 0 0 0 0 0 0
0 0 0 0 0 0 0 0 0 0 0 0 0 0 0 0 0 0 0 0 0 0 0 0 0 0 0 0 0 0 0 0 0 0 0 0 0 0 0 0 0 0 0 0 0 0 0 0 0
0 0 0 0 0 0 0 0 0 0 0 0 0 0 0 0 0 0 0 0 0 0 0 0 0 0 0 0 0 0 0 0 0 0 0 0 0 0 0 0 0 0 0 0 0 0 0 0 0
0 0 0 0 0 0 0 0 0 0 0 0 0 0 0 0 0 0 0 0 0 0 0 0 0 0 0 0 0 0 0 0 0 0 0 0 0 0 0 0 0 0 0 0 0 0 0 0 0
0 0 0 0 0 0 0 0 0 0 0 0 0 0 0 0 0 0 0 0 0 0 0 0 0 0 0 0 0 0 0 0 0 0 0 0 0 0 0 0 0 0 0 0 0 0 0 0 0
0 0 0 0 0 0 0 0 0 0 0 0 0 0 0 0 0 0 0 0 0 0 0 0 0 0 0 0 0 0 0 0 0 0 0 0 0 0 0 0 0 0 0 0 0 0 0 0 0
0 0 0 0 0 0 0 0 0 0 0 0 0 0 0 0 0 0 0 0 0 0 0 0 0 0 0 0 0 0 0 0 0 0 0 0 0 0 0 0 0 0 0 0 0 0 0 0 0
0 0 0 0 0 0 0 0 0 0 0 0 0 0 0 0 0 0 0 0 0 0 0 0 0 0 0 0 0 0 0 0 0 0 0 0 0 0 0 0 0 0 0 0 0 0 0 0 0
0 0 0 0 0 0 0 0 0 0 0 0 0 0 0 0 0 0 0 0 0 0 0 0 0 0 0 0 0 0 0 0 0 0 0 0 0 0 0 0 0 0 0 0 0 0 0 0 0
0 0 0 0 0 0 0 0 0 0 0 0 0 0 0 0 0 0 0 0 0 0 0 0 0 0 0 0 0 0 0 0 0 0 0 0 0 0 0 0 0 0 0 0 0 0 0 0 0
0 0 0 0 0 0 0 0 0 0 0 0 0 0 0 0 0 0 0 0 0 0 0 0 0 0 0 0 0 0 0 0 0 0 0 0 0 0 0 0 0 0 0 0 0 0 0 0 0
0 0 0 0 0 0 0 0 0 0 0 0 0 0 0 0 0 0 0 0 0 0 0 0 0 0 0 0 0 0 0 0 0 0 0 0 0 0 0 0 0 0 0 0 0 0 0 0 0
0 0 0 0 0 0 0 0 0 0 0 0 0 0 0 0 0 0 0 0 0 0 0 0 0 0 0 0 0 0 0 0 0 0 0 0 0 0 0 0 0 0 0 0 0 0 0 0 0
0 0 0 0 0 0 0 0 0 0 0 0 0 0 0 0 0 0 0 0 0 0 0 0 0 0 0 0 0 0 0 0 0 0 0 0 0 0 0 0 0 0 0 0 0 0 0 0 0
0 0 0 0 0 0 0 0 0 0 0 0 0 0 0 0 0 0 0 0 0 0 0 0 0 0 0 0 0 0 0 0 0 0 0 0 0 0 0 0 0 0 0 0 0 0 0 0 0
0 0 0 0 0 0 0 0 0 0 0 0 0 0 0 0 0 0 0 0 0 0 0 0 0 0 0 0 0 0 0 0 0 0 0 0 0 0 0 0 0 0 0 0 0 0 0 0 0
0 0 0 0 0 0 0 0 0 0 0 0 0 0 0 0 0 0 0 0 0 0 0 0 0 0 0 0 0 0 0 0 0 0 0 0 0 0 0 0 0 0 0 0 0 0 0 0 0
0 0 0 0 0 0 0 0 0 0 0 0 0 0 0 0 0 0 0 0 0 0 0 0 0 0 0 0 0 0 0 0 0 0 0 0 0 0 0 0 0 0 0 0 0 0 0 0 0
Wind_Speed_500mb
4 7 7 4 4 5 8 8 4 9 12 17 12 12 27 40 13 9 14 5 15 23 22 27 22 22 23 23 21 18 15 14 13 14 16 13 13 18 21 21 18 15 12 13 14 14 13 12 13
9 10 7 8 4 4 7 11 16 18 16 7 7 3 20 19 31 24 9 5 23 25 17 27 22 19 20 20 19 16 16 15 12 12 12 10 13 17 21 20 16 13 11 12 14 14 14 12 11
9 6 6 4 5 10 9 9 17 21 11 8 5 16 15 11 16 8 7 10 27 27 14 22 23 16 13 16 17 15 14 12 12 14 13 8 9 15 18 19 16 13 12 13 14 14 13 11 8
7 5 9 3 7 11 15 15 15 19 12 7 7 22 18 14 5 8 15 20 22 26 19 21 24 23 18 14 15 16 13 11 12 12 11 9 7 12 16 18 18 13 11 12 13 14 13 10 9
15 7 6 6 12 9 14 19 3 7 12 16 3 19 19 19 17 16 18 19 14 27 23 20 22 21 17 13 12 13 13 13 12 9 9 12 5 9 13 17 19 16 14 14 14 13 12 11 11
6 3 5 7 11 14 13 10 4 6 11 11 2 22 11 13 11 19 13 22 14 24 20 20 24 25 22 17 14 12 12 12 11 9 12 8 2 5 11 16 17 18 16 16 14 14 14 11 10
5 4 7 13 7 9 8 8 10 10 14 14 4 6 25 10 12 12 12 15 19 16 18 13 25 25 24 21 17 13 11 11 10 8 12 6 2 5 7 11 13 16 18 19 18 18 16 13 11
6 2 5 3 3 2 13 9 7 7 11 12 3 3 13 9 6 7 12 10 13 13 12 14 15 21 17 18 19 17 15 14 13 12 10 5 5 2 4 12 12 14 16 20 22 21 18 15 12
6 3 7 5 2 2 18 9 8 3 5 8 3 2 13 5 4 6 8 10 11 20 26 22 27 31 31 22 21 18 18 18 18 17 13 10 10 6 2 8 9 13 22 24 22 21 20 15 11
4 5 11 15 15 10 18 7 20 5 13 12 8 3 3 4 6 15 19 19 16 18 22 24 16 26 36 34 21 23 21 20 20 19 16 11 10 10 5 6 6 10 15 25 29 26 23 26 22
2 5 9 9 10 9 5 3 3 7 12 16 16 11 7 3 6 16 21 29 26 20 19 26 26 22 30 39 27 22 22 20 21 18 19 18 19 7 5 5 5 7 9 15 24 31 32 31 30
7 10 5 7 0 1 4 8 3 19 5 8 11 10 7 6 9 17 21 20 19 19 25 27 29 32 27 32 42 31 39 35 29 25 21 19 21 13 8 9 8 10 7 9 13 23 28 31 35
9 11 3 10 7 9 9 13 13 13 20 18 16 11 11 13 11 9 10 12 14 17 19 21 26 31 32 31 38 41 36 41 31 26 25 19 18 17 12 12 14 15 6 3 8 16 26 30 31
7 13 17 15 20 16 9 16 24 13 26 20 16 16 18 17 14 12 13 17 17 19 20 19 22 23 36 40 38 41 36 32 29 27 23 19 17 13 9 9 8 4 7 10 8 9 19 23 26
11 10 16 33 33 13 12 14 21 25 25 20 21 21 18 16 14 16 16 21 22 25 25 22 25 29 36 40 38 37 32 25 21 22 21 13 11 10 8 10 8 7 9 9 9 11 15 22 24
7 10 7 8 25 10 17 15 18 34 31 30 26 23 20 20 17 18 22 21 23 28 28 23 24 28 36 40 40 37 32 26 21 18 17 17 15 12 11 9 7 4 2 1 8 12 15 14 20
12 10 15 10 25 13 16 10 10 27 30 34 36 29 24 24 20 21 23 21 23 24 20 18 21 30 37 46 38 36 30 24 20 17 15 16 13 15 14 16 14 10 8 9 8 3 9 17 20
13 16 14 14 15 12 14 26 13 33 38 44 38 36 31 25 22 25 20 18 17 13 11 18 25 36 45 41 41 40 35 31 28 25 25 26 24 19 15 11 6 3 5 11 10 14 19 23 27
17 20 18 17 12 9 18 21 21 45 44 41 46 44 37 28 29 23 16 14 14 14 18 26 34 47 52 53 47 48 41 38 36 34 26 22 18 15 11 16 20 21 20 27 26 25 26 26 31
19 21 25 15 11 10 16 24 22 24 44 63 56 46 39 36 28 23 20 20 23 24 28 37 50 59 56 61 51 45 41 39 33 28 27 24 25 27 26 25 26 27 25 24 27 30 33 37 42
17 18 16 17 18 11 11 21 30 27 41 47 49 44 46 46 33 30 29 29 32 34 38 44 54 59 53 52 48 47 45 41 41 39 41 38 33 30 26 24 23 23 23 26 28 31 35 39 38
19 16 22 17 9 11 15 19 7 14 24 28 41 40 37 40 40 36 38 38 40 42 43 51 53 53 48 48 49 46 46 51 48 45 41 38 31 27 23 21 20 21 23 25 31 34 37 38 40
7 8 6 7 11 16 15 17 5 9 18 33 33 45 43 44 45 42 44 46 45 47 53 54 54 48 46 45 42 48 55 53 49 44 38 33 26 21 19 19 22 24 27 30 32 34 37 40 42
15 9 6 3 1 15 20 21 24 20 32 11 33 49 50 53 49 47 47 51 50 49 47 47 46 46 44 46 51 51 50 49 45 38 30 24 18 16 16 17 21 25 27 29 33 35 37 40 41
11 12 3 5 6 14 4 18 29 10 3 12 36 52 57 56 57 60 58 59 55 53 51 49 52 55 54 55 53 48 45 41 35 30 22 18 15 15 17 19 22 26 30 33 36 38 42 45 47
18 16 9 12 9 7 3 14 12 5 8 11 56 63 63 62 63 61 60 61 63 61 61 62 63 62 57 54 50 44 40 36 31 24 18 12 10 12 17 20 24 27 30 32 36 38 43 44 48
12 15 18 6 3 2 11 13 9 1 6 17 43 57 64 67 63 62 62 66 68 69 69 67 64 61 56 52 49 45 37 30 24 20 14 11 12 15 18 20 22 26 29 32 35 41 44 48 49
9 8 9 6 8 11 11 16 22 12 18 15 31 52 62 68 68 68 67 69 71 71 69 66 62 60 58 53 48 43 36 29 21 15 11 9 11 14 16 18 21 24 27 33 40 45 48 53 55
9 9 9 12 8 7 6 11 9 6 26 34 36 56 63 67 70 74 72 70 72 70 69 67 63 60 56 51 46 40 34 26 19 12 6 5 7 9 12 15 19 24 32 41 45 52 56 59 61
17 19 21 12 13 11 4 24 3 10 16 34 43 57 65 72 73 77 77 75 73 70 68 68 64 61 57 52 46 39 32 26 18 12 5 1 6 9 13 16 21 29 35 43 50 54 57 60 63
Wind_Direction_500mb
6 58 92 8 328 182 123 76 107 88 91 49 61 31 80 53 28 92 130 209 138 178 185 175 163 158 154 156 152 146 137 127 120 118 121 110 67 47 37 41 50 58 58 52 51 50 52 53 58
51 90 40 290 241 179 88 127 85 66 71 86 112 250 103 71 81 105 92 66 127 165 180 175 166 164 167 163 159 154 145 144 141 133 131 100 71 49 38 39 38 45 49 44 41 40 40 44 53
83 66 293 258 278 22 105 76 92 99 78 27 109 47 33 19 57 82 150 95 133 155 191 177 166 165 183 174 169 164 154 150 149 150 153 125 91 42 36 39 35 32 37 35 30 32 37 40 48
47 295 264 271 65 30 88 74 78 117 105 58 343 93 81 32 103 119 124 108 143 151 178 195 174 178 191 186 170 168 170 161 154 151 150 145 83 41 35 35 33 43 52 44 36 35 35 38 58
359 288 291 271 77 87 64 71 56 99 107 112 314 87 92 66 90 94 99 113 143 147 185 207 188 174 188 183 180 182 188 177 166 158 160 157 85 48 35 27 27 35 36 31 30 38 50 55 61
285 256 286 248 129 97 88 87 146 107 62 107 315 102 87 144 113 115 117 118 127 157 193 196 189 180 178 181 195 185 191 187 181 172 169 169 90 34 35 20 23 29 32 31 29 33 39 42 58
325 346 308 338 107 128 142 126 225 172 152 78 36 56 137 135 113 114 124 135 156 177 173 176 193 190 192 195 199 204 200 193 193 186 180 191 295 56 6 9 23 27 26 27 25 29 32 33 40
348 254 308 242 324 182 104 165 61 356 69 119 145 70 136 182 119 126 129 138 159 147 158 175 177 195 191 204 214 211 202 194 192 204 208 245 281 9 351 341 25 21 22 21 21 23 25 25 24
20 315 258 152 169 332 122 187 153 214 136 116 117 154 153 175 104 146 142 148 192 179 172 181 207 191 178 203 213 214 211 209 210 217 211 228 226 194 54 333 42 24 11 6 7 15 17 13 10
327 343 344 13 32 349 126 334 148 182 197 166 184 207 245 261 175 161 158 176 193 216 202 202 207 203 190 191 195 218 218 221 224 225 219 218 206 136 95 24 23 6 5 6 1 4 13 8 358
135 253 17 79 32 351 69 210 192 259 268 54 136 162 250 293 185 179 191 209 218 223 221 214 213 217 206 200 184 206 214 217 217 215 209 193 194 166 170 304 356 331 344 4 359 355 359 6 3
288 235 323 36 255 161 250 275 205 233 176 188 194 203 223 224 211 201 207 221 227 229 231 231 222 225 216 206 194 194 202 210 196 189 183 193 200 206 207 223 256 273 318 340 349 342 349 357 357
223 263 184 253 236 227 268 251 254 269 220 232 234 230 226 204 184 200 197 220 225 233 240 238 235 224 223 205 199 198 203 208 204 199 197 200 203 212 219 236 261 263 262 349 344 343 335 338 342
12 326 280 238 219 223 222 253 242 235 212 226 228 213 199 199 198 213 225 237 244 249 252 253 241 217 214 209 198 200 208 211 212 215 228 225 214 221 263 288 230 193 222 333 327 342 329 324 331
293 294 269 236 219 219 197 263 231 213 202 193 184 200 204 212 217 231 248 259 270 271 265 249 240 218 206 199 197 198 200 210 211 211 224 220 227 228 266 267 244 266 283 326 302 319 319 317 325
251 244 289 1 152 151 151 267 204 178 179 192 200 205 215 226 231 243 252 261 263 265 265 252 218 206 189 195 194 192 185 186 185 197 205 210 215 231 243 240 261 186 231 218 287 299 304 329 2
208 263 226 208 182 133 184 268 141 177 194 208 200 209 219 229 233 243 253 261 262 258 248 229 198 184 189 182 192 184 177 177 176 178 187 171 182 163 150 150 163 189 228 257 278 351 6 11 8
210 214 254 246 192 197 198 257 177 195 207 217 212 209 213 213 221 241 247 248 249 244 202 169 170 176 177 174 182 177 173 169 168 166 160 159 164 166 170 165 172 160 85 75 53 32 22 16 18
285 301 284 289 124 186 233 247 244 198 211 217 217 208 207 205 223 236 230 221 192 183 175 168 169 171 179 162 162 164 162 160 157 154 149 151 145 139 130 109 97 86 73 58 47 32 16 5 7
236 257 268 281 267 167 263 265 264 201 209 210 212 205 200 195 215 219 201 187 179 178 175 174 174 173 177 174 171 167 165 154 150 141 138 129 122 113 104 94 81 67 57 46 31 21 16 8 5
248 235 252 254 288 201 279 266 248 249 223 208 216 211 202 197 201 206 190 187 182 177 175 174 168 164 164 170 170 164 155 146 138 135 128 119 113 104 93 79 63 48 32 23 18 14 11 16 13
249 220 241 253 280 252 170 283 262 266 237 188 193 196 190 185 192 199 187 184 181 175 172 170 166 164 164 164 161 160 158 147 136 130 121 115 106 94 79 62 45 32 24 15 14 10 8 3 5
224 29 292 215 250 288 260 284 233 216 251 211 189 187 189 186 188 184 188 188 178 175 172 173 171 165 162 167 168 162 150 141 135 129 126 116 102 87 66 46 31 22 18 16 12 9 7 5 1
113 87 62 46 220 255 211 216 283 231 235 165 176 184 184 181 180 178 188 187 179 177 175 173 171 168 168 162 158 155 150 142 136 126 120 109 95 73 51 32 20 15 10 8 6 4 1 1 357
156 133 235 288 206 243 109 223 245 289 178 173 173 174 182 181 176 180 185 184 183 180 175 168 165 160 158 157 154 152 146 139 134 129 121 106 84 60 40 21 12 7 5 4 2 1 356 353 347
186 189 170 223 208 275 340 240 255 4 45 192 171 169 174 175 180 187 183 180 180 175 168 164 164 161 160 159 155 151 148 146 141 133 121 102 75 46 28 15 10 10 5 1 355 351 345 341 335
179 213 224 28 58 350 222 263 271 220 76 126 155 165 168 175 181 185 180 179 174 170 169 170 169 165 163 161 157 155 152 148 144 137 124 97 62 38 20 12 6 1 353 347 345 340 339 336 334
162 174 139 119 220 235 261 247 238 226 204 199 174 177 175 176 183 185 183 180 175 174 174 175 175 172 169 167 165 162 161 158 149 132 113 79 41 23 7 357 351 349 342 340 341 342 340 337 335
144 213 205 161 202 209 274 255 334 203 189 189 187 182 180 178 183 187 185 183 180 179 179 177 177 174 171 170 168 168 166 160 153 144 115 62 22 4 349 346 343 343 343 344 348 345 341 337 333
213 190 189 170 218 229 192 252 355 46 172 179 182 182 182 183 186 189 189 187 186 185 183 182 180 179 178 176 177 175 172 167 164 164 166 2 344 339 337 339 341 344 349 348 346 342 337 333 329
Wind_Speed_850mb
4 7 7 4 4 5 8 8 4 9 12 17 12 12 27 40 13 9 14 5 15 23 22 27 22 22 23 23 21 18 15 14 13 14 16 13 13 18 21 21 18 15 12 13 14 14 13 12 13
9 10 7 8 4 4 7 11 16 18 16 7 7 3 20 19 31 24 9 5 23 25 17 27 22 19 20 20 19 16 16 15 12 12 12 10 13 17 21 20 16 13 11 12 14 14 14 12 11
9 6 6 4 5 10 9 9 17 21 11 8 5 16 15 11 16 8 7 10 27 27 14 22 23 16 13 16 17 15 14 12 12 14 13 8 9 15 18 19 16 13 12 13 14 14 13 11 8
7 5 9 3 7 11 15 15 15 19 12 7 7 22 18 14 5 8 15 20 22 26 19 21 24 23 18 14 15 16 13 11 12 12 11 9 7 12 16 18 18 13 11 12 13 14 13 10 9
15 7 6 6 12 9 14 19 3 7 12 16 3 19 19 19 17 16 18 19 14 27 23 20 22 21 17 13 12 13 13 13 12 9 9 12 5 9 13 17 19 16 14 14 14 13 12 11 11
6 3 5 7 11 14 13 10 4 6 11 11 2 22 11 13 11 19 13 22 14 24 20 20 24 25 22 17 14 12 12 12 11 9 12 8 2 5 11 16 17 18 16 16 14 14 14 11 10
5 4 7 13 7 9 8 8 10 10 14 14 4 6 25 10 12 12 12 15 19 16 18 13 25 25 24 21 17 13 11 11 10 8 12 6 2 5 7 11 13 16 18 19 18 18 16 13 11
6 2 5 3 3 2 13 9 7 7 11 12 3 3 13 9 6 7 12 10 13 13 12 14 15 21 17 18 19 17 15 14 13 12 10 5 5 2 4 12 12 14 16 20 22 21 18 15 12
6 3 7 5 2 2 18 9 8 3 5 8 3 2 13 5 4 6 8 10 11 20 26 22 27 31 31 22 21 18 18 18 18 17 13 10 10 6 2 8 9 13 22 24 22 21 20 15 11
4 5 11 15 15 10 18 7 20 5 13 12 8 3 3 4 6 15 19 19 16 18 22 24 16 26 36 34 21 23 21 20 20 19 16 11 10 10 5 6 6 10 15 25 29 26 23 26 22
2 5 9 9 10 9 5 3 3 7 12 16 16 11 7 3 6 16 21 29 26 20 19 26 26 22 30 39 27 22 22 20 21 18 19 18 19 7 5 5 5 7 9 15 24 31 32 31 30
7 10 5 7 0 1 4 8 3 19 5 8 11 10 7 6 9 17 21 20 19 19 25 27 29 32 27 32 42 31 39 35 29 25 21 19 21 13 8 9 8 10 7 9 13 23 28 31 35
9 11 3 10 7 9 9 13 13 13 20 18 16 11 11 13 11 9 10 12 14 17 19 21 26 31 32 31 38 41 36 41 31 26 25 19 18 17 12 12 14 15 6 3 8 16 26 30 31
7 13 17 15 20 16 9 16 24 13 26 20 16 16 18 17 14 12 13 17 17 19 20 19 22 23 36 40 38 41 36 32 29 27 23 19 17 13 9 9 8 4 7 10 8 9 19 23 26
11 10 16 33 33 13 12 14 21 25 25 20 21 21 18 16 14 16 16 21 22 25 25 22 25 29 36 40 38 37 32 25 21 22 21 13 11 10 8 10 8 7 9 9 9 11 15 22 24
7 10 7 8 25 10 17 15 18 34 31 30 26 23 20 20 17 18 22 21 23 28 28 23 24 28 36 40 40 37 32 26 21 18 17 17 15 12 11 9 7 4 2 1 8 12 15 14 20
12 10 15 10 25 13 16 10 10 27 30 34 36 29 24 24 20 21 23 21 23 24 20 18 21 30 37 46 38 36 30 24 20 17 15 16 13 15 14 16 14 10 8 9 8 3 9 17 20
13 16 14 14 15 12 14 26 13 33 38 44 38 36 31 25 22 25 20 18 17 13 11 18 25 36 45 41 41 40 35 31 28 25 25 26 24 19 15 11 6 3 5 11 10 14 19 23 27
17 20 18 17 12 9 18 21 21 45 44 41 46 44 37 28 29 23 16 14 14 14 18 26 34 47 52 53 47 48 41 38 36 34 26 22 18 15 11 16 20 21 20 27 26 25 26 26 31
19 21 25 15 11 10 16 24 22 24 44 63 56 46 39 36 28 23 20 20 23 24 28 37 50 59 56 61 51 45 41 39 33 28 27 24 25 27 26 25 26 27 25 24 27 30 33 37 42
17 18 16 17 18 11 11 21 30 27 41 47 49 44 46 46 33 30 29 29 32 34 38 44 54 59 53 52 48 47 45 41 41 39 41 38 33 30 26 24 23 23 23 26 28 31 35 39 38
19 16 22 17 9 11 15 19 7 14 24 28 41 40 37 40 40 36 38 38 40 42 43 51 53 53 48 48 49 46 46 51 48 45 41 38 31 27 23 21 20 21 23 25 31 34 37 38 40
7 8 6 7 11 16 15 17 5 9 18 33 33 45 43 44 45 42 44 46 45 47 53 54 54 48 46 45 42 48 55 53 49 44 38 33 26 21 19 19 22 24 27 30 32 34 37 40 42
15 9 6 3 1 15 20 21 24 20 32 11 33 49 50 53 49 47 47 51 50 49 47 47 46 46 44 46 51 51 50 49 45 38 30 24 18 16 16 17 21 25 27 29 33 35 37 40 41
11 12 3 5 6 14 4 18 29 10 3 12 36 52 57 56 57 60 58 59 55 53 51 49 52 55 54 55 53 48 45 41 35 30 22 18 15 15 17 19 22 26 30 33 36 38 42 45 47
18 16 9 12 9 7 3 14 12 5 8 11 56 63 63 62 63 61 60 61 63 61 61 62 63 62 57 54 50 44 40 36 31 24 18 12 10 12 17 20 24 27 30 32 36 38 43 44 48
12 15 18 6 3 2 11 13 9 1 6 17 43 57 64 67 63 62 62 66 68 69 69 67 64 61 56 52 49 45 37 30 24 20 14 11 12 15 18 20 22 26 29 32 35 41 44 48 49
9 8 9 6 8 11 11 16 22 12 18 15 31 52 62 68 68 68 67 69 71 71 69 66 62 60 58 53 48 43 36 29 21 15 11 9 11 14 16 18 21 24 27 33 40 45 48 53 55
9 9 9 12 8 7 6 11 9 6 26 34 36 56 63 67 70 74 72 70 72 70 69 67 63 60 56 51 46 40 34 26 19 12 6 5 7 9 12 15 19 24 32 41 45 52 56 59 61
17 19 21 12 13 11 4 24 3 10 16 34 43 57 65 72 73 77 77 75 73 70 68 68 64 61 57 52 46 39 32 26 18 12 5 1 6 9 13 16 21 29 35 43 50 54 57 60 63
Wind_Direction_850mb
6 58 92 8 328 182 123 76 107 88 91 49 61 31 80 53 28 92 130 209 138 178 185 175 163 158 154 156 152 146 137 127 120 118 121 110 67 47 37 41 50 58 58 52 51 50 52 53 58
51 90 40 290 241 179 88 127 85 66 71 86 112 250 103 71 81 105 92 66 127 165 180 175 166 164 167 163 159 154 145 144 141 133 131 100 71 49 38 39 38 45 49 44 41 40 40 44 53
83 66 293 258 278 22 105 76 92 99 78 27 109 47 33 19 57 82 150 95 133 155 191 177 166 165 183 174 169 164 154 150 149 150 153 125 91 42 36 39 35 32 37 35 30 32 37 40 48
47 295 264 271 65 30 88 74 78 117 105 58 343 93 81 32 103 119 124 108 143 151 178 195 174 178 191 186 170 168 170 161 154 151 150 145 83 41 35 35 33 43 52 44 36 35 35 38 58
359 288 291 271 77 87 64 71 56 99 107 112 314 87 92 66 90 94 99 113 143 147 185 207 188 174 188 183 180 182 188 177 166 158 160 157 85 48 35 27 27 35 36 31 30 38 50 55 61
285 256 286 248 129 97 88 87 146 107 62 107 315 102 87 144 113 115 117 118 127 157 193 196 189 180 178 181 195 185 191 187 181 172 169 169 90 34 35 20 23 29 32 31 29 33 39 42 58
325 346 308 338 107 128 142 126 225 172 152 78 36 56 137 135 113 114 124 135 156 177 173 176 193 190 192 195 199 204 200 193 193 186 180 191 295 56 6 9 23 27 26 27 25 29 32 33 40
348 254 308 242 324 182 104 165 61 356 69 119 145 70 136 182 119 126 129 138 159 147 158 175 177 195 191 204 214 211 202 194 192 204 208 245 281 9 351 341 25 21 22 21 21 23 25 25 24
20 315 258 152 169 332 122 187 153 214 136 116 117 154 153 175 104 146 142 148 192 179 172 181 207 191 178 203 213 214 211 209 210 217 211 228 226 194 54 333 42 24 11 6 7 15 17 13 10
327 343 344 13 32 349 126 334 148 182 197 166 184 207 245 261 175 161 158 176 193 216 202 202 207 203 190 191 195 218 218 221 224 225 219 218 206 136 95 24 23 6 5 6 1 4 13 8 358
135 253 17 79 32 351 69 210 192 259 268 54 136 162 250 293 185 179 191 209 218 223 221 214 213 217 206 200 184 206 214 217 217 215 209 193 194 166 170 304 356 331 344 4 359 355 359 6 3
288 235 323 36 255 161 250 275 205 233 176 188 194 203 223 224 211 201 207 221 227 229 231 231 222 225 216 206 194 194 202 210 196 189 183 193 200 206 207 223 256 273 318 340 349 342 349 357 357
223 263 184 253 236 227 268 251 254 269 220 232 234 230 226 204 184 200 197 220 225 233 240 238 235 224 223 205 199 198 203 208 204 199 197 200 203 212 219 236 261 263 262 349 344 343 335 338 342
12 326 280 238 219 223 222 253 242 235 212 226 228 213 199 199 198 213 225 237 244 249 252 253 241 217 214 209 198 200 208 211 212 215 228 225 214 221 263 288 230 193 222 333 327 342 329 324 331
293 294 269 236 219 219 197 263 231 213 202 193 184 200 204 212 217 231 248 259 270 271 265 249 240 218 206 199 197 198 200 210 211 211 224 220 227 228 266 267 244 266 283 326 302 319 319 317 325
251 244 289 1 152 151 151 267 204 178 179 192 200 205 215 226 231 243 252 261 263 265 265 252 218 206 189 195 194 192 185 186 185 197 205 210 215 231 243 240 261 186 231 218 287 299 304 329 2
208 263 226 208 182 133 184 268 141 177 194 208 200 209 219 229 233 243 253 261 262 258 248 229 198 184 189 182 192 184 177 177 176 178 187 171 182 163 150 150 163 189 228 257 278 351 6 11 8
210 214 254 246 192 197 198 257 177 195 207 217 212 209 213 213 221 241 247 248 249 244 202 169 170 176 177 174 182 177 173 169 168 166 160 159 164 166 170 165 172 160 85 75 53 32 22 16 18
285 301 284 289 124 186 233 247 244 198 211 217 217 208 207 205 223 236 230 221 192 183 175 168 169 171 179 162 162 164 162 160 157 154 149 151 145 139 130 109 97 86 73 58 47 32 16 5 7
236 257 268 281 267 167 263 265 264 201 209 210 212 205 200 195 215 219 201 187 179 178 175 174 174 173 177 174 171 167 165 154 150 141 138 129 122 113 104 94 81 67 57 46 31 21 16 8 5
248 235 252 254 288 201 279 266 248 249 223 208 216 211 202 197 201 206 190 187 182 177 175 174 168 164 164 170 170 164 155 146 138 135 128 119 113 104 93 79 63 48 32 23 18 14 11 16 13
249 220 241 253 280 252 170 283 262 266 237 188 193 196 190 185 192 199 187 184 181 175 172 170 166 164 164 164 161 160 158 147 136 130 121 115 106 94 79 62 45 32 24 15 14 10 8 3 5
224 29 292 215 250 288 260 284 233 216 251 211 189 187 189 186 188 184 188 188 178 175 172 173 171 165 162 167 168 162 150 141 135 129 126 116 102 87 66 46 31 22 18 16 12 9 7 5 1
113 87 62 46 220 255 211 216 283 231 235 165 176 184 184 181 180 178 188 187 179 177 175 173 171 168 168 162 158 155 150 142 136 126 120 109 95 73 51 32 20 15 10 8 6 4 1 1 357
156 133 235 288 206 243 109 223 245 289 178 173 173 174 182 181 176 180 185 184 183 180 175 168 165 160 158 157 154 152 146 139 134 129 121 106 84 60 40 21 12 7 5 4 2 1 356 353 347
186 189 170 223 208 275 340 240 255 4 45 192 171 169 174 175 180 187 183 180 180 175 168 164 164 161 160 159 155 151 148 146 141 133 121 102 75 46 28 15 10 10 5 1 355 351 345 341 335
179 213 224 28 58 350 222 263 271 220 76 126 155 165 168 175 181 185 180 179 174 170 169 170 169 165 163 161 157 155 152 148 144 137 124 97 62 38 20 12 6 1 353 347 345 340 339 336 334
162 174 139 119 220 235 261 247 238 226 204 199 174 177 175 176 183 185 183 180 175 174 174 175 175 172 169 167 165 162 161 158 149 132 113 79 41 23 7 357 351 349 342 340 341 342 340 337 335
144 213 205 161 202 209 274 255 334 203 189 189 187 182 180 178 183 187 185 183 180 179 179 177 177 174 171 170 168 168 166 160 153 144 115 62 22 4 349 346 343 343 343 344 348 345 341 337 333
213 190 189 170 218 229 192 252 355 46 172 179 182 182 182 183 186 189 189 187 186 185 183 182 180 179 178 176 177 175 172 167 164 164 166 2 344 339 337 339 341 344 349 348 346 342 337 333 329